Location: Newark
(44.3248°N, 23.7839°E)
Time: 00:00:27
(UTC+00:00)

ESTCUBE 1 - Visible Passes

Search period start: 24 April 2024 00:00
Search period end: 04 May 2024 00:00
Orbit: 635 x 649 km, 97.8° (Epoch: 23 April)

Date Brightness Start Highest point End Pass type
(mag) Time Alt. Az. Time Alt. Az. Time Alt. Az.
24 Apr ? 19:15:53 32° E 19:16:43 35° ENE 19:20:45 10° N visible
24 Apr ? 20:53:30 23° W 20:53:30 23° W 20:56:54 10° NW visible
25 Apr ? 19:40:04 56° ESE 19:40:37 62° ENE 19:45:00 10° N visible
25 Apr ? 21:17:41 13° W 21:17:41 13° W 21:19:46 10° WNW visible
26 Apr ? 18:26:41 10° E 18:28:38 13° ENE 18:30:35 10° NE visible
26 Apr ? 20:04:15 70° SW 20:04:35 74° WSW 20:09:01 10° NNW visible
27 Apr ? 18:50:48 18° E 18:52:20 21° ENE 18:55:39 10° NNE visible
27 Apr ? 20:28:24 41° WSW 20:28:37 41° W 20:32:49 10° NNW visible
28 Apr ? 19:14:57 30° ESE 19:16:07 35° ENE 19:20:08 10° N visible
28 Apr ? 20:52:34 23° W 20:52:45 24° W 20:56:18 10° NW visible
29 Apr ? 19:39:06 49° ESE 19:39:58 61° ENE 19:44:21 10° N visible
29 Apr ? 21:16:42 13° W 21:16:56 14° W 21:19:09 10° WNW visible
30 Apr ? 18:26:02 10° E 18:27:57 13° ENE 18:29:53 10° NE visible
30 Apr ? 20:03:14 61° SSW 20:03:54 75° WSW 20:08:20 10° NNW visible
01 May ? 18:49:45 16° E 18:51:38 21° ENE 18:54:55 10° NNE visible
01 May ? 20:27:22 39° WSW 20:27:54 41° W 20:32:06 10° NNW visible
02 May ? 19:13:52 27° ESE 19:15:22 34° ENE 19:19:23 10° N visible
02 May ? 20:51:29 23° WSW 20:51:59 24° W 20:55:34 10° NW visible
03 May ? 19:37:59 43° SE 19:39:11 60° ENE 19:43:33 10° N visible
03 May ? 21:15:35 13° W 21:16:08 14° W 21:18:24 10° WNW visible
